Showing default

SATELIOT_3, 60552

Orbit data source: Space-Track

SATELIOT_3, 60552 is a payload satellite owned by Sateliot (ES) in SSO that was launched on Fri, 16 Aug 2024 UTC via an FALCON 9 launch vehicle from the Air Force Western Test Range (AFWTR). Payload-class satellites include a variety of spacecraft equipped with specific instruments for various scientific and technological missions. These include communications satellites like Starlink; space stations such as the ISS; scientific satellites like the Hubble; Earth observation satellites from companies like Planet Labs, Umbra, and HawkEye 360; GPS; miniature CubeSats for education and research; and military/defense satellites.

Loading next visibility...
Identifier
60552, 2024-149CN
Orbit
SSO
Country
Flag of ESES / SPN
Related business
Manufacturer
Endurosat
Mission
Operational Commercial Communications
Bus & Motor
CUBESAT 6U, Unknown motor
Mass
7.407 kg wet, 7.407 kg dry
Launch date (UTC)
2024-08-16 (2 years ago)
Launch vehicle
FALCON 9
Launch site
Air Force Western Test Range (AFWTR)
Object type
Payload
Rocket body
Debris
Shape & HBR
Box + 2 Pan, 0.2 m
Radar Cross Section
0.092 m², Medium (>0.1 m² and < 1m²)

Expand to show TLE details & history
Last TLE update: 19 hours ago

TLE from 19 hours ago
0 SATELIOT_3
1 60552U 24149CN  26256.69661531  .00002213  00000-0  19056-3 0  9998
2 60552  97.6764 331.9811 0006551 132.3235 227.8544 14.98350996113338
Epoch: 2026-09-13T16:43Z
TLE epoch observation values (Epoch: 2026-09-13T16:43:07.562Z)
Latitude
Longitude
88.51204°
Altitude
578.102 km
Speed
7.57 km/s
True Right ascension
22h 07m 55s
True Declination
0° 00' 00"
Sunlit
Object was in full shadow at epoch
Visualization orbit readout
Latitude
Unknown
Longitude
Unknown
Altitude
Unknown
Speed
Unknown
Apparent Right ascension
Unknown
Apparent Declination
Unknown
Sunlit
N/A
Visualization observer readout
Local Sidereal Time
03:56:48
Azimuth
Unknown
Elevation
Unknown
Doppler factor
Unknown
Orbital elements
Apogee altitude
573.548 km
Perigee altitude
564.446 km
Semi-major axis
6,947.134 km
Eccentricity
0.00066
Inclination
97.6764°
RAAN
331.9811°
Arg. of periapsis
132.3235°
True anomaly
227.79877°
Mean anomaly
227.8544°
Eccentric anomaly
227.82658°
Mean motion
3.7483 °/min
Orbital period
96.04 mins
BSTAR
0.00019056
Loading maneuver chart data...
Computing Atmospheric mass density...
Loading historical data...
Loading historical data...
Loading historical data...
Loading historical data...
Loading historical data...
Loading historical data...
Loading historical data...

Documentation

Showing up to 5 results
|